User: anonymous   Login
Location: Foulognes
(49.1413°N, 0.8183°W)
Time: 09:02:26
(UTC+00:00)
Language:

STARLINK-37 - Orbit

View from above orbital plane
View from above orbital plane
View from above satellite
View from above satellite

Ground track
Ground track

The orbit data is extracted from the following two-line orbital elements,

1 44251U 19029S   19345.25001157  .00211942  00000-0  11829-1 0  9991
2 44251  52.9821 347.9490 0001858  64.8012 170.5530 15.12100101 30392
Epoch (UTC): 11 December 2019 06:00:01
Eccentricity: 0.0001858
inclination: 52.9821°
perigee height: 528 km
apogee height: 531 km
right ascension of ascending node: 347.9490°
argument of perigee: 64.8012°
revolutions per day: 15.12100101
mean anomaly at epoch: 170.5530°
orbit number at epoch: 3039

The dashed part of the orbit path shows where the satellite is in the earth's shadow,  

DLR